DW8947 Weather Reports


time (UTC)temp
C
wind
direction
speed
KPH
gust
KPH
rain 1hr
cm
rain 24hr
cm
rain mn
cm
humidity
%
barometer
mb
20260508185205 13 219 0.0 3.2 0.00 0.00 0.00 67 1019.0
20260508184705 13 232 0.0 3.2 0.00 0.00 0.00 67 1019.1
20260508184204 13 188 1.6 3.2 0.00 0.00 0.00 67 1019.0
20260508183704 13 231 1.6 3.2 0.00 0.00 0.00 67 1019.1
20260508182704 13 204 0.0 3.2 0.00 0.00 0.00 67 1019.0
20260508182204 13 204 0.0 3.2 0.00 0.00 0.00 66 1018.8
20260508181705 13 208 0.0 3.2 0.00 0.00 0.00 67 1018.7
20260508180704 13 299 0.0 3.2 0.00 0.00 0.00 71 1018.7
20260508175704 13 294 0.0 1.6 0.00 0.00 0.00 72 1018.6
20260508172205 12 280 0.0 3.2 0.00 0.00 0.00 71 1018.2
20260508170705 12 211 0.0 3.2 0.00 0.00 0.00 74 1018.1
20260508170204 12 211 0.0 3.2 0.00 0.00 0.00 73 1018.0
20260508165205 12 154 0.0 3.2 0.00 0.00 0.00 73 1017.9
20260508164704 12 200 0.0 3.2 0.00 0.00 0.00 74 1017.8
20260508163705 11 76 0.0 3.2 0.00 0.00 0.00 78 1017.8
20260508163205 11 34 0.0 3.2 0.00 0.00 0.00 78 1017.8
20260508162705 11 175 0.0 3.2 0.00 0.00 0.00 79 1017.9
20260508162205 11 175 0.0 3.2 0.00 0.00 0.00 78 1017.8
20260508161204 11 207 0.0 3.2 0.00 0.00 0.00 78 1017.5
20260508160705 11 248 0.0 1.6 0.00 0.00 0.00 78 1017.5
20260508160205 11 215 0.0 3.2 0.00 0.00 0.00 77 1017.6
20260508155204 11 183 0.0 3.2 0.00 0.00 0.00 77 1017.5
20260508154204 11 186 0.0 3.2 0.00 0.00 0.00 79 1017.5
20260508151704 11 178 0.0 3.2 0.00 0.00 0.00 81 1017.7
20260508151205 10 184 0.0 1.6 0.00 0.00 0.00 83 1017.5
20260508145204 10 287 0.0 0.0 0.00 0.00 0.00 86 1017.4
20260508144704 10 287 0.0 3.2 0.00 0.00 0.00 86 1017.5
20260508143204 10 287 0.0 1.6 0.00 0.00 0.00 88 1017.2
20260508142704 10 287 0.0 1.6 0.00 0.00 0.00 87 1017.0
20260508135704 10 287 0.0 0.0 0.00 0.00 0.00 89 1016.5
20260508135205 10 287 0.0 0.0 0.00 0.00 0.00 90 1016.4
20260508134204 10 288 0.0 0.0 0.00 0.00 0.00 91 1016.3
20260508133704 10 288 0.0 3.2 0.00 0.00 0.00 91 1016.3
20260508133205 10 288 0.0 0.0 0.00 0.00 0.00 91 1016.1
20260508132704 10 288 0.0 0.0 0.00 0.00 0.00 91 1015.9
20260508131704 10 288 0.0 0.0 0.00 0.00 0.00 91 1016.0
20260508131205 10 288 0.0 0.0 0.00 0.00 0.00 92 1016.0
20260508130704 10 288 0.0 0.0 0.00 0.00 0.00 92 1015.9
20260508124705 10 288 0.0 0.0 0.00 0.00 0.00 92 1015.6
20260508124204 10 288 0.0 0.0 0.00 0.00 0.00 92 1015.4
20260508123205 10 288 0.0 0.0 0.00 0.00 0.00 92 1015.5
20260508114704 10 288 0.0 1.6 0.00 0.00 0.00 92 1015.2
20260508114204 10 288 0.0 0.0 0.00 0.00 0.00 92 1015.3
20260508113205 9 288 0.0 0.0 0.00 0.00 0.00 92 1015.2
20260508112704 10 288 0.0 0.0 0.00 0.00 0.00 92 1015.2
20260508112205 9 288 0.0 0.0 0.00 0.00 0.00 92 1015.0
20260508111704 9 288 0.0 0.0 0.00 0.00 0.00 91 1015.0
20260508111205 9 288 0.0 0.0 0.00 0.00 0.00 91 1015.0
20260508105204 9 288 0.0 0.0 0.00 0.00 0.00 91 1014.8
20260508104705 10 288 0.0 0.0 0.00 0.00 0.00 91 1014.9
20260508102205 10 288 0.0 0.0 0.00 0.00 0.00 91 1014.8
20260508101705 10 288 0.0 0.0 0.00 0.00 0.00 91 1014.8
20260508101205 10 288 0.0 0.0 0.00 0.00 0.00 90 1014.8
20260508100704 10 288 0.0 0.0 0.00 0.00 0.00 90 1014.8
20260508095204 10 288 0.0 0.0 0.00 0.00 0.00 89 1014.7
20260508094705 10 288 0.0 0.0 0.00 0.00 0.00 89 1014.6
20260508093205 10 288 0.0 0.0 0.00 0.00 0.00 89 1014.6
20260508091204 10 288 0.0 0.0 0.00 0.00 0.00 89 1014.7
20260508090705 10 288 0.0 3.2 0.00 0.00 0.00 88 1014.7
20260508090204 10 288 0.0 3.2 0.00 0.00 0.00 88 1014.8
20260508085204 10 288 0.0 3.2 0.00 0.00 0.00 88 1014.8
20260508084205 10 288 0.0 3.2 0.00 0.00 0.00 88 1014.8
20260508083204 10 288 0.0 3.2 0.00 0.00 0.00 87 1014.8
20260508082704 10 288 0.0 3.2 0.00 0.00 0.00 87 1014.8
20260508082204 10 288 0.0 3.2 0.00 0.00 0.00 87 1014.8
20260508081204 10 288 0.0 3.2 0.00 0.00 0.00 87 1014.8
20260508080704 10 288 0.0 3.2 0.00 0.00 0.00 87 1014.8
20260508075704 11 288 0.0 3.2 0.00 0.00 0.00 86 1014.8
20260508074705 11 288 0.0 3.2 0.00 0.00 0.00 86 1014.8
20260508073704 11 84 0.0 3.2 0.00 0.00 0.00 86 1014.9
20260508073204 11 84 0.0 3.2 0.00 0.00 0.00 86 1014.9
20260508072704 11 84 0.0 3.2 0.00 0.00 0.00 86 1015.0
20260508072204 11 84 0.0 3.2 0.00 0.00 0.00 86 1014.9
20260508064204 11 84 0.0 3.2 0.00 0.00 0.00 84 1015.0
20260508062705 11 84 0.0 0.0 0.00 0.00 0.00 85 1015.0
20260508062205 11 84 0.0 0.0 0.00 0.00 0.00 83 1015.0
20260508061204 11 84 0.0 0.0 0.00 0.00 0.00 84 1015.0
20260508060704 11 84 0.0 0.0 0.00 0.00 0.00 83 1015.1
20260508060204 11 84 0.0 0.0 0.00 0.00 0.00 83 1015.2
20260508054205 11 156 0.0 1.6 0.00 0.00 0.00 82 1015.2
20260508053204 12 94 0.0 3.2 0.00 0.00 0.00 82 1015.2
20260508052704 12 94 0.0 3.2 0.00 0.00 0.00 81 1015.2
20260508051704 12 94 0.0 1.6 0.00 0.00 0.00 80 1015.1
20260508051204 12 94 0.0 1.6 0.00 0.00 0.00 80 1015.2
20260508050704 12 94 0.0 1.6 0.00 0.00 0.00 79 1015.2
20260508045704 12 94 0.0 3.2 0.00 0.00 0.00 78 1015.2
20260508045204 12 94 0.0 3.2 0.00 0.00 0.00 78 1015.2
20260508044704 12 94 0.0 3.2 0.00 0.00 0.00 77 1015.2
20260508044204 12 94 0.0 3.2 0.00 0.00 0.00 77 1015.3
20260508043204 12 94 0.0 3.2 0.00 0.00 0.00 76 1015.3
20260508042704 12 94 0.0 3.2 0.00 0.00 0.00 77 1015.2
20260508035204 13 94 0.0 0.0 0.00 0.00 0.00 75 1015.3
20260508034705 13 94 0.0 0.0 0.00 0.00 0.00 75 1015.1
20260508034204 13 94 0.0 0.0 0.00 0.00 0.00 75 1015.1
20260508033204 13 94 0.0 0.0 0.00 0.00 0.00 75 1015.1
20260508032704 13 94 0.0 0.0 0.00 0.00 0.00 75 1015.2
20260508031705 13 94 0.0 0.0 0.00 0.00 0.00 74 1015.2
20260508030704 14 94 0.0 0.0 0.00 0.00 0.00 74 1015.2
20260508025705 14 94 0.0 0.0 0.00 0.00 0.00 74 1015.2
20260508024204 14 94 0.0 0.0 0.00 0.00 0.00 74 1015.4
20260508023204 15 94 0.0 0.0 0.00 0.00 0.00 73 1015.4
20260508022704 15 94 0.0 0.0 0.00 0.00 0.00 72 1015.4
20260508022204 15 94 0.0 0.0 0.00 0.00 0.00 71 1015.4
20260508021204 15 94 0.0 0.0 0.00 0.00 0.00 70 1015.4
20260508020704 15 94 0.0 0.0 0.00 0.00 0.00 70 1015.5
20260508015704 16 94 0.0 0.0 0.00 0.00 0.00 69 1015.5
20260508015204 16 95 0.0 1.6 0.00 0.00 0.00 67 1015.5
20260508013705 16 132 0.0 3.2 0.00 0.00 0.00 68 1015.6
20260508011704 16 90 0.0 3.2 0.00 0.00 0.00 67 1015.8
20260508010204 16 214 0.0 3.2 0.00 0.00 0.00 66 1015.9
20260508005205 16 200 0.0 1.6 0.00 0.00 0.00 62 1016.0
20260508004704 16 200 0.0 3.2 0.00 0.00 0.00 63 1016.1
20260508000704 17 0 0.0 3.2 0.00 0.00 0.00 64 1016.2
20260508000205 17 0 0.0 3.2 0.00 0.00 0.00 63 1016.2
20260507235704 17 0 1.6 1.6 0.00 0.00 0.00 65 1016.2
20260507235204 17 0 0.0 3.2 0.00 0.00 0.00 63 1016.2
20260507234704 17 0 0.0 3.2 0.00 0.00 0.00 65 1016.3
20260507233704 17 59 0.0 3.2 0.00 0.00 0.00 64 1016.3
20260507233204 17 59 0.0 3.2 0.00 0.00 0.00 63 1016.4
20260507230204 17 79 0.0 3.2 0.00 0.00 0.00 63 1016.6
20260507225204 17 46 0.0 3.2 0.00 0.00 0.00 61 1016.8
20260507224204 17 87 1.6 3.2 0.00 0.00 0.00 60 1016.9
20260507223705 17 241 0.0 3.2 0.00 0.00 0.00 59 1016.9
20260507222704 17 204 0.0 3.2 0.00 0.00 0.00 59 1017.0
20260507221203 17 20 1.6 3.2 0.00 0.00 0.00 60 1017.1
20260507220704 17 199 0.0 3.2 0.00 0.00 0.00 60 1017.2
20260507214704 16 69 0.0 3.2 0.00 0.00 0.00 69 1017.4
20260507214204 16 69 0.0 3.2 0.00 0.00 0.00 67 1017.4
20260507213704 16 63 0.0 3.2 0.00 0.00 0.00 67 1017.5
20260507212704 16 29 0.0 3.2 0.00 0.00 0.00 69 1017.6
20260507211704 17 55 1.6 3.2 0.00 0.00 0.00 66 1017.6
20260507210204 15 293 0.0 3.2 0.00 0.00 0.00 73 1017.9
20260507204704 15 300 0.0 3.2 0.00 0.00 0.00 75 1018.1
20260507202704 15 253 1.6 1.6 0.00 0.00 0.00 76 1018.3
20260507200704 15 34 0.0 3.2 0.00 0.00 0.00 77 1018.5
20260507195204 14 27 0.0 1.6 0.00 0.00 0.00 76 1018.5
20260507194704 14 15 0.0 3.2 0.00 0.00 0.00 76 1018.5
20260507194204 14 15 0.0 3.2 0.00 0.00 0.00 76 1018.5
20260507192704 14 8 0.0 1.6 0.00 0.00 0.00 76 1018.5
20260507192204 14 8 0.0 3.2 0.00 0.00 0.00 75 1018.6
20260507190704 14 53 0.0 3.2 0.00 0.00 0.00 77 1018.6